GFSSW_850_rhum_111.txt.gz
RH
27 25 21 16 18 18 20 18 17 14 15 12 11 9 4 4 4 10 21 15 17 16 8 10 23 26 24 22 20 18 18 18 15 13 10 7 8 8 8 6 8 10 11 19 31
18 18 25 24 16 14 17 20 20 17 16 20 18 12 5 4 6 22 18 14 11 11 10 14 17 19 20 21 20 17 20 19 12 10 10 9 9 8 9 8 9 12 14 21 28
12 12 13 17 22 35 39 32 28 29 26 25 24 22 6 4 32 15 14 13 28 24 21 25 17 16 17 18 19 18 21 16 13 12 11 10 9 10 9 9 8 10 12 16 20
32 37 36 35 34 24 26 24 20 18 18 20 29 40 23 58 10 22 17 26 23 22 45 29 22 16 15 18 17 20 18 17 16 15 13 12 12 11 10 10 9 8 10 14 15
35 35 29 23 20 18 16 13 11 12 13 13 19 30 63 46 33 20 22 13 18 23 26 27 22 21 17 17 16 17 17 17 17 16 15 15 14 13 13 11 12 12 11 13 16
21 15 11 10 10 10 12 12 12 10 12 15 20 25 78 49 27 27 24 22 21 16 11 17 18 18 17 17 16 15 17 16 17 17 17 17 16 16 15 15 15 15 15 14 14
13 11 11 11 14 17 16 12 11 12 14 17 19 37 67 47 31 29 25 24 22 20 19 21 14 17 17 17 16 15 16 15 15 16 17 18 19 18 16 16 17 18 16 16 14
12 13 14 15 18 20 19 16 13 16 19 18 24 60 64 44 43 40 34 28 24 21 21 22 20 19 19 18 16 18 17 20 15 14 14 17 21 14 14 14 15 14 15 15 14
14 14 15 19 26 20 12 10 13 24 31 40 76 71 54 36 38 40 39 34 22 21 20 21 22 27 21 22 24 22 24 22 19 13 13 15 19 14 13 14 15 16 16 16 16
14 17 21 24 20 13 13 22 36 46 63 46 61 62 39 34 28 35 42 44 34 23 23 24 18 18 18 20 30 27 25 21 19 14 14 16 18 15 13 14 14 15 16 16 16
25 23 18 19 18 20 31 48 39 31 45 44 32 36 36 34 35 31 28 42 51 25 22 21 17 18 15 18 19 20 22 22 19 14 20 22 20 16 14 15 16 17 18 17 17
20 23 24 20 18 41 72 56 62 85 91 54 41 33 43 59 56 38 36 44 64 41 23 19 18 12 12 12 18 21 24 29 20 17 19 19 20 16 14 14 14 15 17 17 16
29 31 22 24 38 78 70 62 64 86 65 38 36 43 59 73 71 40 36 40 63 52 28 19 13 9 12 14 15 20 24 28 23 20 23 19 21 17 12 11 12 14 15 13 12
32 30 31 38 84 63 52 66 72 83 69 29 32 51 57 71 75 38 31 39 56 80 25 15 9 10 13 14 15 20 20 23 27 33 44 28 35 18 14 10 10 10 9 9 10
34 41 40 45 75 62 61 75 79 92 49 24 26 38 44 58 52 28 29 34 42 62 45 20 14 14 16 14 16 20 21 28 29 31 28 24 31 20 11 10 10 10 10 13 18
51 48 46 74 84 68 76 86 87 92 47 26 22 28 42 68 56 36 24 27 32 37 58 19 14 16 16 13 16 18 22 23 23 26 34 24 20 17 13 13 9 9 14 22 26
48 48 49 82 67 80 86 67 79 58 26 29 27 30 47 65 85 30 24 25 32 34 60 36 44 16 16 22 20 24 34 53 54 46 40 20 20 16 11 12 12 17 22 27 29
43 46 75 77 85 92 70 64 67 36 34 25 23 31 66 77 59 67 28 19 19 16 22 27 39 31 23 20 27 27 27 54 60 52 36 19 26 16 11 12 16 20 23 26 28
63 77 72 82 92 85 51 60 38 45 29 31 25 35 41 34 80 95 54 68 40 29 42 25 25 17 24 20 20 26 26 21 35 36 44 31 20 22 15 16 23 22 21 22 25
77 60 64 58 88 72 49 46 25 25 30 31 34 33 46 38 58 97 82 77 86 62 47 38 27 15 16 19 18 20 18 30 30 37 34 21 25 25 24 25 25 22 24 25 29
80 48 70 46 83 49 66 34 33 31 34 40 40 44 36 42 44 93 93 72 68 73 56 49 42 21 15 20 19 18 23 22 20 21 27 29 26 24 25 24 27 23 24 28 34
62 56 66 77 54 54 46 41 44 36 33 37 43 38 45 44 40 52 58 58 62 87 89 66 65 37 29 18 14 11 18 20 26 25 21 28 54 20 24 23 24 25 30 34 42
45 40 60 81 60 36 34 35 40 41 38 41 46 36 34 46 56 36 42 41 39 68 94 82 57 82 78 35 19 16 15 20 22 23 35 36 24 24 27 29 31 37 61 64 68
66 76 42 46 48 47 44 40 40 39 40 38 38 32 35 43 36 46 38 33 39 55 72 76 72 81 82 84 35 36 21 16 21 31 26 26 60 49 31 30 53 63 69 66 69
75 66 45 56 45 40 39 39 38 43 34 33 37 39 39 45 41 40 34 34 31 50 50 64 72 52 53 52 41 52 45 28 27 28 34 34 38 48 60 60 64 70 69 69 74
58 68 50 39 41 41 44 35 38 42 36 37 41 39 38 42 40 46 41 41 45 40 52 55 78 51 44 32 35 37 29 27 24 22 23 22 22 42 54 60 66 73 73 78 83
73 69 60 51 39 40 34 34 36 35 34 34 36 42 44 38 39 41 42 44 43 48 57 66 72 60 48 34 35 42 33 29 26 23 28 35 47 46 67 70 81 83 89 90 92

GFSSW_850_rhum_117.txt.gz
RH
5 6 7 5 3 3 3 3 2 2 2 2 2 2 2 2 2 2 3 9 15 17 19 18 19 15 12 22 30 30 38 39 35 28 22 14 14 11 7 7 7 6 8 23 31
5 4 4 3 3 3 3 2 2 2 2 3 3 2 2 2 2 15 16 15 15 15 16 17 14 13 15 17 22 31 39 35 25 21 20 16 14 13 9 8 7 7 25 32 35
5 5 4 4 3 3 2 3 3 4 4 4 3 3 3 2 16 32 18 17 14 18 20 26 30 20 18 17 17 24 36 28 24 21 19 18 16 14 11 12 8 8 20 19 31
6 6 4 3 3 3 4 4 6 5 5 4 4 5 5 10 13 24 17 20 22 18 22 28 44 40 30 25 15 24 21 22 23 21 20 20 17 17 15 11 8 8 12 17 14
6 5 5 6 5 5 6 6 6 5 4 4 6 9 10 36 12 20 27 27 27 28 23 22 20 23 39 28 22 18 18 18 18 20 19 18 18 18 17 15 12 12 13 13 14
6 6 6 6 7 6 6 5 4 3 3 6 10 13 27 56 21 23 24 23 21 23 25 25 19 17 14 15 24 20 18 17 16 17 17 19 18 18 17 16 14 13 13 13 14
9 7 7 8 8 7 6 4 4 4 6 16 18 19 40 17 32 27 30 30 31 32 32 28 29 25 15 16 14 20 25 22 20 17 18 17 23 21 17 16 15 15 14 14 14
8 8 8 10 8 6 5 4 5 16 18 32 30 39 59 42 35 32 26 22 20 25 29 32 28 26 26 19 14 14 19 29 21 20 18 19 26 19 17 16 16 16 16 15 15
10 8 10 9 7 5 5 6 18 32 24 45 46 66 71 34 31 24 35 39 38 36 27 25 35 34 27 28 31 16 27 26 25 20 20 21 24 18 17 17 18 17 17 16 15
8 9 9 8 6 7 24 20 25 31 38 49 54 59 40 31 28 30 35 34 37 42 38 28 29 51 43 35 45 27 26 26 30 22 20 23 22 20 16 16 18 17 18 17 17
9 9 9 8 10 38 46 29 36 48 36 39 32 44 29 30 34 35 32 33 41 46 52 38 36 53 50 36 27 26 30 25 25 21 23 23 21 18 18 15 17 17 16 16 16
7 8 8 9 41 59 60 51 57 63 74 34 35 38 31 32 39 32 30 37 40 47 45 49 54 33 32 50 41 28 28 31 24 21 25 24 32 20 24 19 15 15 16 14 16
9 7 8 14 50 59 59 56 60 66 81 53 34 32 29 25 30 31 39 38 36 51 54 57 61 33 34 54 64 28 27 27 30 41 44 40 42 39 28 20 17 14 14 14 16
10 12 12 16 47 60 59 62 66 74 96 44 31 23 18 18 32 34 44 33 43 56 48 70 51 65 54 51 58 31 21 20 23 29 67 43 56 40 33 25 21 18 16 16 16
21 22 28 46 46 70 65 47 72 76 66 21 19 16 16 27 26 32 37 41 41 50 78 64 62 91 100 67 42 27 22 19 20 40 70 58 68 46 30 28 24 22 19 17 12
29 22 68 69 77 74 66 70 81 91 62 21 17 20 25 27 28 32 46 44 43 45 52 66 53 64 74 53 34 20 22 23 42 64 94 55 55 48 33 27 24 21 19 17 15
28 23 24 46 77 72 47 79 88 91 22 23 24 26 28 34 38 41 57 61 57 64 53 33 37 39 51 56 41 21 22 65 91 90 79 41 48 42 28 22 21 20 19 19 19
27 26 63 62 56 42 75 90 96 35 25 22 27 30 39 37 44 52 74 70 54 63 88 63 84 61 48 58 36 25 45 79 91 78 58 32 52 40 26 22 20 18 29 29 28
66 74 72 51 42 68 85 96 46 25 24 30 30 44 42 36 52 73 88 77 51 52 94 80 66 54 48 55 51 36 42 39 61 53 69 43 30 24 23 25 26 30 31 33 47
72 73 74 64 38 79 95 68 32 24 26 30 40 40 52 44 56 79 70 65 56 51 59 68 78 58 71 64 30 29 29 64 77 88 86 78 43 42 38 43 52 74 59 58 62
68 78 68 48 58 91 96 59 32 26 26 32 37 45 43 45 46 69 58 48 38 58 55 66 75 62 59 61 45 40 38 48 73 53 66 95 87 45 49 41 68 80 86 80 69
75 90 58 19 86 78 91 32 31 28 28 31 34 36 49 51 49 58 64 51 34 48 73 65 85 90 55 47 33 43 49 38 57 60 46 69 89 61 71 67 71 75 77 78 73
87 60 42 45 91 80 41 33 28 31 30 32 36 40 51 48 56 50 56 42 35 42 70 72 84 94 70 53 54 59 39 30 36 44 38 62 81 71 76 81 70 72 76 76 77
77 92 56 52 45 41 46 41 38 33 30 26 35 51 46 47 42 55 52 40 37 38 42 58 76 97 95 92 98 87 66 47 32 45 43 59 78 93 84 82 83 75 77 76 78
78 86 48 87 70 40 38 42 43 36 30 29 37 39 44 56 52 65 51 49 44 37 47 59 83 73 68 60 99 97 69 62 58 45 39 65 85 95 94 94 88 80 76 80 85
48 84 57 56 37 39 46 39 40 33 36 38 43 41 42 52 50 66 57 57 59 44 56 57 80 76 72 49 57 62 68 58 58 57 55 67 95 82 88 90 85 81 81 87 91
72 67 59 56 51 56 52 34 36 35 32 33 38 42 53 51 49 49 49 50 52 56 61 68 75 82 76 55 55 95 98 87 86 90 63 86 95 78 84 82 86 85 89 93 99

GFSSW_850_rhum_123.txt.gz
RH
7 4 4 3 2 2 2 2 2 2 3 3 4 4 3 3 2 16 18 25 22 20 21 17 16 17 17 18 18 33 56 53 49 44 34 26 27 22 19 20 18 14 14 22 30
5 4 4 3 3 3 2 2 2 3 4 4 4 3 2 2 2 18 22 23 25 24 21 21 25 32 22 15 17 29 53 41 42 36 36 31 30 28 23 22 21 19 15 20 39
4 4 3 3 3 2 2 2 4 5 5 4 3 2 2 2 10 30 24 24 24 23 23 23 25 44 34 19 16 22 29 25 32 33 32 35 32 28 28 29 24 22 17 28 42
4 3 3 3 2 2 3 3 5 5 4 4 3 2 3 4 9 32 27 22 23 22 21 22 22 25 41 35 26 24 16 17 20 24 26 28 27 29 27 26 23 21 19 25 54
4 3 3 3 2 3 4 5 6 5 4 3 4 5 8 9 7 14 13 19 23 22 25 25 25 27 28 30 29 27 27 27 25 23 18 17 20 24 24 23 24 23 21 20 48
3 3 3 3 4 4 5 6 5 4 4 10 13 16 20 16 14 20 21 18 26 30 28 30 30 31 32 33 30 26 28 26 23 21 17 21 21 18 18 19 20 21 21 20 38
3 3 3 4 4 5 6 6 5 7 10 23 26 33 22 25 24 23 22 22 25 32 36 34 32 32 30 36 29 30 34 28 23 18 20 17 24 23 17 17 19 20 19 19 18
4 4 4 5 5 7 6 6 8 15 22 32 34 38 25 24 19 21 25 26 28 29 33 35 36 38 31 28 35 38 36 34 17 19 18 22 24 17 20 19 18 19 19 19 18
4 5 6 6 7 7 7 10 19 22 30 37 39 46 28 23 19 20 25 28 32 32 32 37 40 41 34 45 54 48 50 38 29 19 20 20 21 16 17 20 20 19 19 19 18
7 6 6 8 8 10 15 22 37 36 39 47 50 55 26 20 23 22 24 31 34 36 36 41 42 43 50 51 53 35 43 34 37 25 25 29 28 22 18 19 22 20 19 20 18
7 6 6 8 12 27 29 36 32 45 43 28 24 26 22 22 26 21 26 38 38 41 59 46 58 66 57 46 38 40 46 50 45 36 39 37 31 26 22 22 18 21 21 22 19
8 7 6 8 48 51 40 28 32 32 32 24 28 28 24 27 34 21 28 40 43 56 45 53 70 46 46 48 51 52 55 54 42 34 41 46 44 29 23 24 18 19 20 22 20
8 7 8 16 64 59 50 45 43 31 50 32 32 29 25 29 33 24 28 36 49 57 51 59 48 43 45 50 58 58 65 61 58 48 39 49 54 35 24 24 22 17 20 19 22
9 7 8 33 57 59 56 55 36 49 71 51 45 30 25 23 30 24 32 46 42 52 51 65 50 50 50 54 48 71 48 54 91 91 85 44 65 45 38 39 34 20 20 19 18
8 9 11 45 60 63 60 50 57 60 40 38 25 16 23 25 26 26 29 46 52 54 60 69 60 67 78 68 51 72 58 84 74 71 62 64 70 55 44 49 39 31 22 20 20
17 15 39 44 72 67 50 67 71 76 51 27 19 25 33 28 31 29 38 41 48 55 58 60 46 48 53 46 54 61 71 77 68 73 94 64 64 70 53 42 36 32 27 59 59
21 30 56 66 66 67 47 75 78 64 23 28 25 33 40 38 39 43 60 67 64 84 68 62 65 50 48 74 60 71 70 92 92 97 84 45 57 51 41 47 47 49 64 68 73
25 28 68 65 70 38 73 82 66 40 29 26 30 37 42 41 40 54 60 70 52 59 80 91 85 57 49 69 71 82 64 74 87 90 75 55 65 65 57 34 54 58 71 79 83
27 34 27 60 50 69 72 84 53 33 29 34 37 45 48 42 50 58 83 70 58 54 83 81 78 45 48 48 69 68 90 49 56 85 94 76 60 75 75 74 78 79 85 88 89
39 60 67 51 55 77 78 55 35 29 28 32 46 43 53 51 56 75 64 56 54 45 53 75 88 53 52 64 68 77 55 66 76 96 83 86 92 91 92 86 84 86 87 93 93
79 71 71 66 80 74 85 68 34 27 29 34 39 42 46 58 56 81 72 59 49 49 48 70 88 67 58 96 95 85 92 84 78 93 96 96 94 80 92 94 95 89 92 95 98
78 92 74 60 86 93 89 65 30 31 29 34 34 42 53 56 56 54 60 56 50 53 66 56 85 90 64 59 57 67 93 89 99 88 94 97 99 97 93 89 89 92 92 97 100
67 80 77 75 95 91 69 40 36 35 32 34 36 51 46 48 55 54 56 46 48 56 58 61 80 97 67 58 54 82 72 85 92 97 94 97 98 97 97 96 98 97 100 100 100
67 92 71 67 77 54 47 46 43 36 36 34 44 42 44 46 47 55 53 57 46 51 52 58 80 87 95 82 93 98 83 76 86 95 79 97 99 100 100 100 100 99 100 100 100
69 84 67 91 76 52 45 42 45 45 32 34 47 43 44 50 56 60 60 60 51 47 57 66 88 76 70 65 94 100 96 93 90 90 92 100 99 100 100 100 100 100 100 96 99
70 73 60 62 41 43 46 45 44 35 33 38 43 43 42 50 51 58 64 60 66 57 60 67 85 80 77 63 88 80 81 82 79 93 95 95 98 100 98 91 94 97 99 100 100
72 64 52 76 63 65 64 46 44 39 38 38 42 47 52 52 46 52 55 56 57 61 67 76 86 88 79 63 98 84 98 97 94 94 98 100 100 100 95 92 98 99 100 100 100

GFSSW_850_rhum_129.txt.gz
RH
22 18 13 7 4 3 2 2 2 1 2 2 2 3 3 2 4 12 14 20 20 18 14 11 8 10 12 16 20 38 32 41 33 33 26 28 28 27 29 30 28 25 24 23 23
25 19 13 6 4 3 2 2 2 2 2 2 3 4 3 3 10 16 21 22 20 18 14 9 7 7 17 16 20 23 34 29 30 32 33 30 28 28 29 27 28 30 25 25 24
30 20 12 6 4 3 3 2 2 2 2 2 4 3 3 3 18 24 25 23 18 13 11 12 17 16 40 26 20 27 21 25 22 28 24 23 21 20 21 21 25 28 28 27 26
34 22 12 6 4 4 3 2 3 3 3 3 4 3 4 4 9 28 20 18 19 18 16 18 17 20 26 30 32 29 28 25 27 27 25 21 20 19 19 18 19 19 18 21 22
40 25 12 6 5 4 3 3 3 4 4 4 4 4 7 6 11 11 18 22 23 22 20 22 24 30 27 30 30 27 25 28 28 28 24 21 19 17 14 13 9 9 11 15 19
52 26 14 6 4 4 4 4 4 4 4 5 4 5 8 9 13 18 21 20 20 23 29 32 36 35 32 32 30 31 29 28 27 25 23 22 19 18 12 10 12 14 14 15 18
52 41 13 7 5 4 5 6 6 6 5 5 5 10 13 14 18 21 23 26 28 30 31 33 36 36 38 35 35 33 32 27 21 21 19 18 14 14 14 18 18 20 20 19 20
73 45 13 13 5 5 6 6 6 7 8 7 9 14 22 20 21 22 25 28 29 31 34 34 35 38 39 36 35 33 33 26 17 18 17 16 16 13 15 19 18 19 20 19 19
82 46 19 11 5 5 7 8 11 10 11 12 15 14 25 22 20 21 25 27 29 34 36 37 36 42 40 41 38 38 24 32 26 20 20 20 20 16 17 22 27 28 26 23 20
81 71 24 7 5 7 9 20 26 24 22 25 24 21 24 21 21 22 24 28 34 36 39 41 45 44 44 40 25 28 33 31 33 25 25 29 31 26 28 30 31 31 31 29 26
88 65 37 8 6 8 23 33 32 36 35 28 27 25 24 22 22 23 26 31 37 40 45 50 49 44 37 42 37 41 43 40 33 29 37 40 38 33 32 34 33 32 32 31 30
97 73 29 9 7 17 38 31 22 21 21 34 27 22 24 24 22 25 28 34 42 49 49 48 54 44 45 45 48 48 51 48 40 35 42 43 43 36 35 35 34 36 36 36 34
94 66 23 27 9 22 41 35 23 13 23 30 28 27 27 27 26 26 32 42 48 55 54 55 44 43 46 46 52 50 56 52 53 45 47 50 43 25 22 24 24 26 33 35 33
96 42 29 12 26 37 42 32 22 14 55 44 41 33 27 28 28 28 36 44 46 52 53 60 50 48 48 50 47 63 43 46 51 70 75 52 77 34 20 24 24 24 27 30 29
82 51 24 18 42 50 38 41 21 37 24 43 37 31 25 28 27 29 40 46 53 52 56 54 58 63 74 60 50 57 48 52 56 71 83 50 71 30 25 30 30 30 38 70 65
68 72 40 24 46 44 43 37 42 63 25 34 23 30 33 32 32 34 36 43 50 55 58 56 51 49 53 49 52 45 59 63 68 86 85 54 52 37 44 96 92 75 91 97 81
77 83 42 34 42 50 51 63 69 39 27 26 35 37 37 40 38 46 49 47 49 47 48 51 52 53 50 59 53 64 70 69 59 70 44 37 47 39 94 95 97 94 98 100 100
90 51 35 76 72 62 64 77 46 42 32 28 37 40 45 42 46 46 56 51 51 56 62 56 32 52 54 58 56 57 84 78 87 60 55 43 56 70 70 97 100 100 100 100 100
56 48 45 72 72 65 73 75 40 37 29 36 40 45 46 45 56 53 69 56 54 48 48 60 52 44 36 50 58 97 94 66 91 63 77 54 66 73 61 86 99 99 100 100 100
52 69 90 84 74 62 80 57 35 32 33 34 42 43 51 49 50 64 58 56 53 48 48 52 72 44 48 57 63 72 68 89 85 90 78 57 86 88 93 95 96 99 98 100 100
75 80 88 79 64 78 87 56 35 29 30 38 42 48 49 56 56 69 63 56 52 50 53 53 64 53 51 67 57 69 64 75 87 88 91 86 93 100 98 98 98 98 99 100 100
92 98 86 85 90 89 81 54 30 34 33 38 44 50 55 53 52 52 58 53 52 53 52 53 66 73 51 44 49 53 65 79 93 80 78 86 96 100 100 100 98 98 99 99 98
97 100 100 98 95 88 71 52 36 37 37 37 56 47 46 49 52 50 52 50 49 53 53 58 75 86 42 55 50 72 67 90 96 100 97 94 94 100 99 97 98 98 99 98 97
72 98 93 94 84 77 77 54 52 36 41 46 47 42 44 44 46 51 45 48 50 54 54 64 72 77 76 69 89 85 71 82 84 94 94 95 94 93 96 97 96 97 99 98 98
63 82 71 96 92 61 54 51 50 44 39 39 45 42 43 49 49 53 58 55 53 57 57 55 72 72 66 62 89 97 81 87 92 89 81 93 91 97 98 97 98 99 98 98 99
72 72 69 68 67 56 50 49 47 39 41 46 49 49 46 47 43 54 51 58 54 54 56 64 73 73 68 70 92 95 86 71 90 86 90 96 90 100 97 88 88 96 99 99 100
63 59 48 68 58 57 56 49 45 50 57 41 46 52 53 51 48 48 49 51 53 55 67 70 76 78 71 63 97 93 95 96 91 89 92 89 98 99 85 86 97 96 99 100 100

GFSSW_850_rhum_132.txt.gz
RH
46 31 24 18 9 4 3 2 2 2 2 2 2 3 3 2 3 8 24 14 16 15 12 13 16 20 13 13 20 25 16 15 14 18 16 16 20 18 19 23 21 23 23 22 22
55 40 28 19 9 4 3 2 2 2 2 2 3 3 3 3 7 22 16 16 18 16 19 16 14 17 10 10 13 14 10 8 10 14 17 19 17 14 13 12 12 13 17 24 25
66 47 33 21 10 4 3 2 2 2 2 2 3 4 3 4 23 25 22 21 12 9 10 16 18 18 13 14 11 10 10 7 13 18 19 15 12 10 10 10 9 10 16 18 15
77 62 42 24 11 4 3 2 2 2 2 3 4 4 5 5 9 28 14 15 18 19 23 19 17 12 10 11 20 16 12 14 11 17 16 13 11 10 9 8 7 9 11 12 11
81 77 52 28 13 5 3 2 2 2 3 3 4 4 8 11 20 12 16 19 23 28 25 22 18 17 11 14 16 15 11 14 15 15 14 12 11 9 9 9 10 10 10 11 11
86 84 67 34 14 5 4 3 2 3 3 4 5 5 10 9 9 16 20 22 27 28 28 26 27 26 19 18 18 20 19 17 15 14 14 14 11 11 9 8 10 11 12 12 14
96 87 80 44 16 7 4 3 3 3 4 5 6 9 15 14 18 22 23 26 27 31 30 32 32 28 27 20 27 23 21 13 12 13 10 11 10 8 8 10 11 10 10 11 12
100 95 91 61 17 12 5 4 4 4 4 6 9 14 21 19 22 24 25 28 26 30 33 34 36 33 31 30 23 21 17 14 12 11 11 13 11 7 10 12 11 11 13 17 18
99 100 95 89 18 13 5 4 4 7 7 10 12 16 21 20 25 21 24 27 30 34 35 36 37 33 32 24 16 20 12 12 13 14 14 15 17 12 14 15 17 18 18 18 18
100 100 100 80 24 8 5 6 9 13 17 20 22 23 25 21 22 22 24 26 34 35 37 36 32 26 24 20 12 16 17 14 15 13 16 20 22 18 18 17 16 17 19 20 20
98 100 100 57 31 8 8 18 31 55 34 28 27 26 26 23 23 25 25 34 36 33 28 36 26 20 20 24 24 26 25 21 17 18 30 30 26 23 19 17 16 18 18 19 19
95 100 100 86 24 20 15 33 26 26 34 27 23 25 23 23 23 26 28 29 32 28 35 33 27 27 29 30 32 29 29 26 21 24 30 30 32 23 16 13 15 19 23 21 19
100 100 100 91 59 31 25 27 12 14 17 29 32 25 29 25 22 25 32 34 31 37 35 35 28 35 36 30 34 30 31 30 32 31 30 34 24 12 15 14 34 48 52 50 45
100 100 100 90 62 50 52 26 19 9 27 26 29 30 33 30 23 29 35 33 35 36 35 40 36 37 35 37 34 38 28 34 38 44 46 35 52 24 19 40 56 53 71 83 84
90 99 100 94 46 49 43 30 19 12 31 24 30 34 32 22 24 31 39 39 32 32 42 39 39 45 60 43 38 37 36 42 44 47 57 35 43 19 46 81 70 61 79 98 99
89 100 93 60 57 56 32 30 16 49 30 29 27 27 25 25 25 30 32 39 40 34 37 33 32 36 36 36 37 36 44 40 43 52 66 32 32 34 75 96 85 87 81 97 100
100 100 88 60 74 62 45 32 44 30 22 25 25 26 23 28 30 30 30 32 30 30 27 24 33 37 42 42 36 46 47 40 44 48 34 25 32 78 58 71 94 95 97 99 99
100 97 75 78 72 67 57 57 34 19 25 18 25 26 29 30 32 33 37 36 36 31 28 24 39 37 39 40 55 52 54 54 69 44 46 32 35 74 47 51 75 93 97 99 99
98 82 66 69 79 91 60 54 28 22 22 27 27 31 33 34 41 37 46 35 39 31 32 31 30 25 26 39 48 86 64 56 76 50 62 32 44 55 46 51 71 96 91 99 99
95 98 96 94 80 82 68 37 26 21 21 24 27 23 34 32 37 88 40 39 43 35 35 39 45 30 30 45 47 50 44 58 71 80 65 35 76 79 80 78 75 96 97 98 99
96 94 99 100 85 86 82 29 26 25 24 24 31 29 27 34 32 51 48 46 38 35 37 40 48 35 34 45 44 41 51 55 56 59 65 62 89 100 99 98 95 95 98 98 98
98 95 98 100 85 66 48 30 24 27 27 29 27 31 32 35 38 35 45 37 42 36 40 46 51 52 35 31 37 44 54 61 79 67 60 71 96 95 100 99 98 97 98 98 97
98 99 100 100 83 55 50 34 26 26 25 30 38 34 33 36 42 36 41 43 44 38 45 48 54 60 47 51 42 53 50 58 67 81 96 92 92 94 98 97 97 98 98 98 98
76 99 100 99 91 50 48 36 44 39 43 41 37 33 35 38 35 42 40 41 48 42 51 54 50 66 59 71 71 71 56 59 62 87 90 88 91 91 96 96 95 97 99 98 98
80 77 67 95 87 70 39 37 42 42 40 39 36 30 32 39 37 37 34 42 46 59 48 46 53 51 48 44 71 91 62 71 87 79 78 90 87 97 97 96 98 98 98 98 98
61 70 76 60 64 52 40 34 34 40 37 39 34 31 31 35 28 40 36 41 43 44 45 50 57 53 54 53 76 85 60 51 65 84 72 90 80 98 92 81 74 77 97 98 98
71 62 53 58 55 41 37 36 35 40 42 30 32 37 37 35 37 38 39 41 42 44 54 59 60 58 48 46 99 92 96 83 85 81 83 76 90 89 72 71 79 82 84 91 98